User: anonymous   Login
Location: St Paul
(33.9360°N, 83.4200°W)
Time: 22:30:15
(UTC-04:00)
Language:

METEOR-M - Orbit

View from above orbital plane
View from above orbital plane
View from above satellite
View from above satellite

Ground track
Ground track

The orbit data is extracted from the following two-line orbital elements,

1 35865U 09049A   18266.61813076 +.00000032 +00000-0 +33049-4 0  9992
2 35865 098.4076 272.1247 0001494 211.4997 148.6092 14.22165247467820
Epoch (UTC): 23 September 2018 14:50:06
Eccentricity: 0.0001494
inclination: 98.4076°
perigee height: 817 km
apogee height: 819 km
right ascension of ascending node: 272.1247°
argument of perigee: 211.4997°
revolutions per day: 14.22165247
mean anomaly at epoch: 148.6092°
orbit number at epoch: 46782

The dashed part of the orbit path shows where the satellite is in the earth's shadow,  

DLR